Location: Feydey
(46.3431°N, 7.0106°E)
Time: 23:57:49
(UTC+00:00)

FENGYUN 1C DEB - Visible Passes

Search period start: 10 August 2022 00:00
Search period end: 20 August 2022 00:00
Orbit: 655 x 997 km, 98.8° (Epoch: 07 August)

Date Brightness Start Highest point End Pass type
(mag) Time Alt. Az. Time Alt. Az. Time Alt. Az.
10 Aug ? 20:28:08 10° SSW 20:32:23 36° W 20:36:56 10° NNW visible
11 Aug ? 20:08:41 10° S 20:13:12 55° W 20:18:07 10° NNW visible
12 Aug ? 19:49:28 10° SSE 19:54:06 83° WSW 19:59:11 10° NNW visible
13 Aug ? 19:30:25 10° SSE 19:35:04 67° ENE 19:40:08 10° N visible
13 Aug ? 21:13:09 10° SW 21:15:55 15° W 21:18:50 10° NW visible
14 Aug ? 19:11:35 10° SE 19:16:06 45° ENE 19:21:00 10° N visible
14 Aug ? 20:52:52 10° SW 20:56:36 23° W 21:00:36 10° NW visible
15 Aug ? 20:33:03 10° SSW 20:37:21 34° W 20:42:01 10° NNW visible
16 Aug ? 20:13:32 10° S 20:18:09 51° W 20:23:14 10° NNW visible
17 Aug ? 19:54:15 10° S 19:59:03 76° WSW 20:04:20 10° NNW visible
18 Aug ? 19:35:10 10° SSE 19:39:59 74° ENE 19:45:19 10° NNW visible
18 Aug ? 21:18:12 10° WSW 21:20:56 15° W 21:23:49 10° NW visible
19 Aug ? 19:16:17 10° SE 19:21:01 51° ENE 19:26:13 10° N visible
19 Aug ? 20:57:49 10° SW 21:01:37 22° W 21:05:40 10° NW visible
